TimePDT,TemperatureF,Dew PointF,Humidity,Sea Level PressureIn,VisibilityMPH,Wind Direction,Wind SpeedMPH,Gust SpeedMPH,PrecipitationIn,Events,Conditions,WindDirDegrees,DateUTC
12:53 AM,57.9,53.1,84,30.02,8.0,North,3.5,-,N/A,,Overcast,360,2012-09-12 07:53:00
1:53 AM,57.0,52.0,83,30.02,7.0,ENE,4.6,-,N/A,,Overcast,60,2012-09-12 08:53:00
2:53 AM,55.9,52.0,87,30.02,6.0,ENE,4.6,-,N/A,,Overcast,60,2012-09-12 09:53:00
3:53 AM,55.9,52.0,87,30.03,6.0,Calm,Calm,-,N/A,,Overcast,0,2012-09-12 10:53:00
4:53 AM,55.9,52.0,87,30.04,6.0,NNE,3.5,-,N/A,,Overcast,20,2012-09-12 11:53:00
5:53 AM,55.9,52.0,87,30.06,5.0,North,3.5,-,N/A,,Overcast,10,2012-09-12 12:53:00
6:53 AM,55.9,52.0,87,30.07,3.0,Calm,Calm,-,N/A,,Overcast,0,2012-09-12 13:53:00
7:53 AM,55.9,52.0,87,30.09,3.0,Calm,Calm,-,N/A,,Overcast,0,2012-09-12 14:53:00
8:12 AM,55.4,51.8,88,30.07,2.5,Calm,Calm,-,N/A,,Overcast,0,2012-09-12 15:12:00
8:35 AM,55.4,53.6,94,30.07,3.0,Calm,Calm,-,N/A,,Overcast,0,2012-09-12 15:35:00
8:53 AM,57.0,53.1,87,30.10,4.0,Calm,Calm,-,N/A,,Overcast,0,2012-09-12 15:53:00
9:53 AM,57.9,53.1,84,30.11,5.0,Calm,Calm,-,N/A,,Haze,0,2012-09-12 16:53:00
10:44 AM,62.6,53.6,72,30.08,5.0,Calm,Calm,-,N/A,,Haze,0,2012-09-12 17:44:00
10:53 AM,64.0,53.1,67,30.11,5.0,Calm,Calm,-,N/A,,Haze,0,2012-09-12 17:53:00
11:53 AM,68.0,53.1,59,30.09,7.0,West,4.6,-,N/A,,Clear,280,2012-09-12 18:53:00
12:53 PM,72.0,55.9,57,30.07,10.0,WNW,11.5,-,N/A,,Clear,300,2012-09-12 19:53:00
1:53 PM,71.1,55.9,59,30.06,10.0,WNW,13.8,-,N/A,,Clear,290,2012-09-12 20:53:00
2:53 PM,69.1,55.9,63,30.05,10.0,West,11.5,-,N/A,,Clear,280,2012-09-12 21:53:00
3:53 PM,69.1,55.9,63,30.04,10.0,WNW,13.8,-,N/A,,Clear,300,2012-09-12 22:53:00
4:53 PM,64.0,55.9,75,30.04,10.0,WNW,13.8,-,N/A,,Clear,290,2012-09-12 23:53:00
5:10 PM,64.4,55.4,73,30.01,10.0,West,12.7,-,N/A,,Partly Cloudy,280,2012-09-13 00:10:00
5:27 PM,64.4,55.4,73,30.01,10.0,WNW,12.7,-,N/A,,Mostly Cloudy,300,2012-09-13 00:27:00
5:53 PM,62.1,55.9,80,30.04,10.0,WNW,11.5,-,N/A,,Overcast,300,2012-09-13 00:53:00
6:53 PM,61.0,55.9,83,30.04,10.0,West,10.4,-,N/A,,Overcast,280,2012-09-13 01:53:00
7:41 PM,60.8,55.4,82,30.02,10.0,WNW,9.2,-,N/A,,Overcast,300,2012-09-13 02:41:00
7:53 PM,60.1,55.9,86,30.05,10.0,WNW,10.4,-,N/A,,Overcast,290,2012-09-13 02:53:00
8:53 PM,60.1,55.9,86,30.07,10.0,WNW,8.1,-,N/A,,Overcast,290,2012-09-13 03:53:00
9:53 PM,60.1,55.9,86,30.07,9.0,WNW,4.6,-,N/A,,Overcast,290,2012-09-13 04:53:00
10:53 PM,57.9,55.9,93,30.08,3.0,Calm,Calm,-,N/A,,Overcast,0,2012-09-13 05:53:00
11:12 PM,57.2,55.4,94,30.05,1.8,West,3.5,-,N/A,,Overcast,270,2012-09-13 06:12:00
11:19 PM,57.2,55.4,94,30.05,3.0,West,3.5,-,N/A,,Overcast,270,2012-09-13 06:19:00
11:29 PM,57.2,55.4,94,30.05,1.8,WNW,3.5,-,N/A,,Overcast,300,2012-09-13 06:29:00
11:36 PM,57.2,55.4,94,30.05,3.0,WNW,3.5,-,N/A,,Overcast,290,2012-09-13 06:36:00
11:41 PM,57.2,55.4,94,30.05,1.8,NNW,3.5,-,N/A,,Overcast,330,2012-09-13 06:41:00
11:49 PM,57.2,55.4,94,30.05,3.0,Calm,Calm,-,N/A,,Overcast,0,2012-09-13 06:49:00
11:53 PM,57.9,55.9,93,30.08,5.0,Calm,Calm,-,N/A,,Overcast,0,2012-09-13 06:53:00